TimeEST,TemperatureF,Dew PointF,Humidity,Sea Level PressureIn,VisibilityMPH,Wind Direction,Wind SpeedMPH,Gust SpeedMPH,PrecipitationIn,Events,Conditions,WindDirDegrees,DateUTC
12:54 AM,36.0,21.9,57,30.12,10.0,East,4.6,-,N/A,,Overcast,90,2013-03-07 05:54:00
1:54 AM,35.1,23.0,61,30.13,10.0,East,5.8,-,N/A,,Overcast,100,2013-03-07 06:54:00
2:54 AM,36.0,21.0,55,30.13,10.0,Calm,Calm,-,N/A,,Overcast,0,2013-03-07 07:54:00
3:54 AM,35.1,21.0,57,30.14,10.0,Calm,Calm,-,N/A,,Overcast,0,2013-03-07 08:54:00
4:54 AM,34.0,23.0,64,30.14,10.0,North,3.5,-,N/A,,Overcast,350,2013-03-07 09:54:00
5:54 AM,34.0,21.9,61,30.14,10.0,NE,3.5,-,N/A,,Overcast,40,2013-03-07 10:54:00
6:54 AM,33.1,24.1,70,30.14,10.0,NNE,3.5,-,N/A,,Overcast,20,2013-03-07 11:54:00
7:54 AM,35.1,23.0,61,30.15,10.0,East,4.6,-,N/A,,Overcast,80,2013-03-07 12:54:00
8:54 AM,36.0,21.0,55,30.17,10.0,Calm,Calm,-,N/A,,Overcast,0,2013-03-07 13:54:00
9:54 AM,37.9,19.0,47,30.17,10.0,Calm,Calm,-,N/A,,Overcast,0,2013-03-07 14:54:00
10:54 AM,39.0,21.9,50,30.17,10.0,WNW,3.5,-,N/A,,Overcast,290,2013-03-07 15:54:00
11:54 AM,39.0,21.0,49,30.17,10.0,NW,3.5,-,N/A,,Overcast,310,2013-03-07 16:54:00
12:54 PM,39.9,23.0,51,30.16,10.0,Variable,4.6,-,N/A,,Overcast,0,2013-03-07 17:54:00
1:54 PM,39.9,24.1,53,30.16,10.0,North,11.5,-,N/A,,Overcast,350,2013-03-07 18:54:00
2:54 PM,39.9,21.9,49,30.16,10.0,NNW,9.2,-,N/A,,Overcast,340,2013-03-07 19:54:00
3:54 PM,39.0,21.9,50,30.17,10.0,NNW,13.8,-,N/A,,Overcast,330,2013-03-07 20:54:00
4:54 PM,37.0,19.9,50,30.19,10.0,NW,11.5,-,N/A,,Overcast,320,2013-03-07 21:54:00
5:54 PM,35.1,21.0,57,30.21,10.0,NNW,11.5,-,N/A,,Mostly Cloudy,330,2013-03-07 22:54:00
6:54 PM,33.1,21.9,64,30.23,10.0,NNW,11.5,-,N/A,,Overcast,340,2013-03-07 23:54:00
7:54 PM,33.1,21.0,61,30.23,10.0,NNW,10.4,-,N/A,,Overcast,330,2013-03-08 00:54:00
8:54 PM,32.0,21.0,64,30.23,10.0,North,11.5,18.4,0.00,Snow,Light Snow,360,2013-03-08 01:54:00
9:25 PM,30.2,23.0,75,30.23,2.0,NNW,12.7,-,0.00,Snow,Light Snow,340,2013-03-08 02:25:00
9:54 PM,28.9,24.1,82,30.22,2.0,NNW,10.4,-,0.00,Snow,Light Snow,330,2013-03-08 02:54:00
9:56 PM,28.4,24.8,86,30.22,1.8,NNW,10.4,-,0.00,Snow,Light Snow,330,2013-03-08 02:56:00
10:22 PM,28.4,24.8,86,30.22,2.0,NW,9.2,-,0.00,Snow,Light Snow,320,2013-03-08 03:22:00
10:40 PM,28.4,24.8,86,30.21,1.8,NW,11.5,-,0.01,Snow,Light Snow,320,2013-03-08 03:40:00
10:54 PM,28.9,24.1,82,30.22,1.5,NW,9.2,-,0.01,Snow,Light Snow,320,2013-03-08 03:54:00
11:42 PM,28.4,24.8,86,30.21,1.8,NW,9.2,-,0.02,Snow,Light Snow,310,2013-03-08 04:42:00
11:50 PM,28.4,24.8,86,30.21,1.2,NW,10.4,-,0.02,Snow,Light Snow,320,2013-03-08 04:50:00
11:54 PM,28.9,25.0,85,30.22,1.2,NW,10.4,-,0.02,Snow,Light Snow,320,2013-03-08 04:54:00